Location: The Saddle
(36.8333°N, 80.3417°W)
Time: 14:12:01
(UTC-05:00)

S-56A Canister/Altair - Pass Details

Date: 13 December 2023
Orbit: 639 x 2488 km, 38.9° (Epoch: 03 March)

Event Time Altitude Azimuth Distance (km) Brightness Sun altitude
Rises 09:56:49 0° 254° (WSW) 4,160 11.1 21.7°
Reaches altitude 10° 10:00:06 10° 254° (WSW) 2,917 10.4 22.1°
Maximum altitude 10:06:46 90° 287° (WNW) 822 8.1 22.8°
Drops below altitude 10° 10:11:37 10° 76° (ENE) 2,145 10.1 23.3°
Sets 10:13:43 0° 77° (ENE) 2,986 10.8 23.5°
